Regional Weather Roundup
Issued by NWS

Home | Current Version | Previous Version | Text Only | Print | Product List | Glossary Off
Versions: 1 2 3 4 5 6 7 8 9 10 11 12 13 14 15 16 17 18 19 20 21 22 23 24 25 26 27 28 29 30 31 32 33 34 35 36 37 38 39 40 41 42 43 44 45 46 47 48

000
ASUS45 KBOU 221107
RWRCO

WEATHER ROUNDUP FOR COLORADO
NATIONAL WEATHER SERVICE DENVER/BOULDER CO
500 AM MDT MON SEP 22 2014

NOTE: "FAIR" INDICATES FEW OR NO CLOUDS BELOW 12000 FEET WITH NO
SIGNIFICANT WEATHER AND/OR OBSTRUCTIONS TO VISIBILITY.

COZ001>005-013-030-031-221200-
...NORTHWEST COLORADO...

CITY           SKY/WX    TMP DP  RH WIND       PRES   REMARKS
CRAIG          MOCLDY    53  49  86 CALM      30.26S
HAYDEN         MOCLDY    54  48  82 E7        30.27S
MEEKER         PTCLDY    50  49  96 E5        30.26S
MOUNT WERNER   NOT AVBL
STEAMBOAT SPGS MOCLDY    50  49  95 NW3       30.30R
WALDEN         MOCLDY    46  43  87 E6        30.36F
$$

COZ006>008-011-221200-
...WEST CENTRAL VALLEYS...

CITY           SKY/WX    TMP DP  RH WIND       PRES   REMARKS
GRAND JUNCTION PTCLDY    61  56  83 E12       30.19R
MONTROSE       CLOUDY    60  58  92 W3        30.28S
EAGLE          CLOUDY    54  54 100 CALM      30.36S
RIFLE          CLOUDY    59  56  89 CALM      30.24F
DELTA          RAIN      62  59  90 NE6       30.24S
NUCLA          MOCLDY    55  54  94 NE3       30.31S
$$

COZ017>023-064>068-221200-
...SOUTHWEST COLORADO...

CITY           SKY/WX    TMP DP  RH WIND       PRES   REMARKS
DURANGO        CLOUDY    58  56  93 CALM      30.35R
CORTEZ         CLOUDY    60  58  92 CALM      30.28R
PAGOSA SPRINGS LGT RAIN  58  53  83 S5        30.40S
TELLURIDE      NOT AVBL
WOLF CREEK PAS SNOW      41  41 100 S17G24    30.61F VSB<1/4
$$

COZ009-010-012-014-032>034-037-058>063-221200-
...CENTRAL COLORADO...

CITY           SKY/WX    TMP DP  RH WIND       PRES   REMARKS
ASPEN          LGT RAIN  53  51  93 CALM      30.39R
BUENA VISTA    CLOUDY    51  50  95 SE5       30.40F
COPPER MTN     LGT RAIN  45  41  87 S24       30.61S
BERTHOUD PASS  FOG       36  36 100 W8        30.64R VSB 1/2
COTTONWOOD PAS CLOUDY    50  46  87 CALM      30.49F FOG
GUNNISON       CLOUDY    54  48  82 N3        30.40S
KREMMLING      DRIZZLE   52  48  87 CALM      30.38S
LEADVILLE      LGT RAIN  47  46  97 SE7       30.49R
MONARCH PASS   FOG       43  41  93 SW13      30.72S VSB<1/4
SALIDA         CLOUDY    55  50  84 SE6       30.45S
SUNLIGHT       CLOUDY    45  43  93 CALM      30.54F
WILKERSON PASS NOT AVBL
$$

COZ069>075-221200-
...SAN LUIS VALLEY/SANGRE DE CRISTO MOUNTAINS...

CITY           SKY/WX    TMP DP  RH WIND       PRES   REMARKS
ALAMOSA        MOCLDY    58  49  72 S10       30.37F
LA VETA PASS   MOCLDY    45  43  93 S7        30.53F
SAGUACHE       NOT AVBL
$$

COZ035-036-038>040-221200-
...NORTHERN COLORADO FRONT RANGE...

CITY           SKY/WX    TMP DP  RH WIND       PRES   REMARKS
DENVER INTL AP CLOUDY    61  47  59 S23       30.21S
DMNS CITY PARK   N/A     62  48  58 S6G15     30.19F
AURORA         MOCLDY    60  47  62 S20G26    30.23S
FRONT RANGE AP NOT AVBL
ERIE MUNI ARPT NOT AVBL
BOULDER MUN AP CLOUDY    55  54  94 W3        30.21S
CENTENNIAL     MOCLDY    59  47  64 S17       30.23F
BROOMFIELD     CLOUDY    59  52  77 CALM      30.23R
FORT COLLINS   CLOUDY    55  45  67 N6        30.21F
LONGMONT       CLOUDY    59  50  70 CALM      30.21F
$$

COZ041-046-047-076>085-087-088-221200-
...PIKES PEAK/PALMER DIVIDE AND SOUTHERN FOOTHILLS...

CITY           SKY/WX    TMP DP  RH WIND       PRES   REMARKS
COLO. SPRINGS  MOCLDY    57  44  62 SE9       30.33F
A. F. ACADEMY  CLOUDY    56  43  62 S8        30.33F
ELLICOTT       NOT AVBL
FALCON         CLOUDY    54  45  70 S10G16    30.36F
FORT CARSON    MOCLDY    57  45  63 SE2       30.30F
LIMON          PTCLDY    50  40  68 SE8       30.29F
MONUMENT HILL  MOCLDY    52  45  76 S17G23    30.32S
TRINIDAD       CLOUDY    60  54  80 W17       30.30F
$$

COZ042>045-048>051-090-091-221200-
...NORTHEAST COLORADO...

CITY           SKY/WX    TMP DP  RH WIND       PRES   REMARKS
GREELEY ARPT   CLOUDY    57  41  54 E6        30.20F
AKRON          PTCLDY    58  41  53 S17       30.24F
BURLINGTON     CLEAR     55  40  56 S10       30.29F
WRAY           CLOUDY    61  41  48 SE6       30.27F
STERLING       PTCLDY    63  45  51 S12       30.21F
HOLYOKE        MOCLDY    61  43  51 S9        30.25F
FORT MORGAN    PTCLDY    56  41  56 S5        30.23S
$$

COZ086-089-092>099-221200-
...SOUTHEAST COLORADO...

CITY           SKY/WX    TMP DP  RH WIND       PRES   REMARKS
PUEBLO         CLOUDY    60  49  66 NW5       30.24F
LA JUNTA       MOCLDY    56  45  66 E9        30.25F
LAMAR          PTCLDY    54  44  69 E10       30.26F
SPRINGFIELD      N/A     61  50  67 S12       30.31F
$$


USA.gov is the U.S. government's official web portal to all federal, state and local government web resources and services.